When you browse on this site, cookies collect data to enhance your experience and personalize the content and advertising you see.
Visit our Privacy Policy to learn more. By continuing to use the site, you agree to this use of cookies and data.
  • în România
  • Lista ţărilor
  • Pe 7 zile
  • Temperatura apei
  • Hartă satelitară
  • Meteo pe hartă
  • Widget-uri
  • user-avatar
    Intrare

    Meteo pe oră la Kowala

    Astăzi, 22 Februarie, Vineri

    Timp Temperatura Precipitaţii Vânt Presiune Umiditate
    00:00 +5°C° 0.4 mm 5 m/s 746 mmHg 86%
    01:00 +5°C° 0 mm 4 m/s 746 mmHg 86%
    02:00 +5°C° 0.6 mm 4 m/s 746 mmHg 87%
    03:00 +5°C° 0.6 mm 5 m/s 746 mmHg 88%
    04:00 +5°C° 0.6 mm 5 m/s 746 mmHg 89%
    05:00 +2°C° 0.6 mm 6 m/s 746 mmHg 87%
    06:00 -1°C° 0.6 mm 7 m/s 747 mmHg 84%
    07:00 -2°C° 0.6 mm 8 m/s 748 mmHg 82%
    08:00 -3°C° 0.1 mm 7 m/s 749 mmHg 77%
    09:00 -3°C° 0.1 mm 7 m/s 751 mmHg 71%
    10:00 -3°C° 0.1 mm 7 m/s 752 mmHg 65%
    11:00 -3°C° 0 mm 7 m/s 753 mmHg 59%
    12:00 -3°C° 0 mm 7 m/s 754 mmHg 52%
    13:00 -3°C° 0 mm 7 m/s 755 mmHg 46%
    14:00 -3°C° 0 mm 7 m/s 755 mmHg 46%
    15:00 -4°C° 0 mm 7 m/s 756 mmHg 45%
    16:00 -4°C° 0 mm 6 m/s 756 mmHg 45%
    17:00 -5°C° 0 mm 6 m/s 757 mmHg 46%
    18:00 -5°C° 0 mm 5 m/s 758 mmHg 47%
    19:00 -6°C° 0 mm 5 m/s 759 mmHg 48%
    20:00 -6°C° 0 mm 5 m/s 759 mmHg 45%
    21:00 -6°C° 0 mm 5 m/s 760 mmHg 43%
    22:00 -6°C° 0 mm 5 m/s 761 mmHg 40%
    23:00 -6°C° 0 mm 5 m/s 761 mmHg 40%

    Mâine, 23 Februarie, Sâmbătă

    Timp Temperatura Precipitaţii Vânt Presiune Umiditate
    00:00 -6°C° 0 mm 5 m/s 761 mmHg 41%
    01:00 -5°C° 0 mm 4 m/s 762 mmHg 41%
    02:00 -7°C° 0 mm 4 m/s 762 mmHg 43%
    03:00 -7°C° 0 mm 4 m/s 762 mmHg 44%
    04:00 -6°C° 0 mm 3 m/s 762 mmHg 46%
    05:00 -6°C° 0 mm 3 m/s 762 mmHg 47%
    06:00 -6°C° 0 mm 3 m/s 762 mmHg 49%
    07:00 -6°C° 0 mm 3 m/s 763 mmHg 51%
    08:00 -6°C° 0 mm 3 m/s 763 mmHg 48%
    09:00 -5°C° 0 mm 3 m/s 763 mmHg 45%
    10:00 -4°C° 0 mm 3 m/s 763 mmHg 43%
    11:00 -4°C° 0 mm 3 m/s 763 mmHg 40%
    12:00 -2°C° 0 mm 3 m/s 763 mmHg 37%
    13:00 -2°C° 0 mm 3 m/s 763 mmHg 35%
    14:00 -2°C° 0 mm 2 m/s 763 mmHg 35%
    15:00 -2°C° 0 mm 2 m/s 763 mmHg 36%
    16:00 -2°C° 0 mm 2 m/s 762 mmHg 36%
    17:00 0°C° 0 mm 1 m/s 763 mmHg 40%
    18:00 -1°C° 0 mm 1 m/s 763 mmHg 43%
    19:00 -2°C° 0 mm 1 m/s 763 mmHg 47%
    20:00 -2°C° 0 mm 1 m/s 763 mmHg 48%
    21:00 -2°C° 0 mm 1 m/s 763 mmHg 49%
    22:00 -3°C° 0 mm 0 m/s 763 mmHg 49%
    23:00 -2°C° 0 mm 1 m/s 762 mmHg 49%

    Poimâine, 24 Februarie, Duminică

    Timp Temperatura Precipitaţii Vânt Presiune Umiditate
    00:00 -2°C° 0 mm 1 m/s 762 mmHg 49%
    01:00 -2°C° 0 mm 1 m/s 762 mmHg 50%
    02:00 -2°C° 0 mm 1 m/s 762 mmHg 48%
    03:00 -1°C° 0 mm 1 m/s 762 mmHg 47%
    04:00 -1°C° 0 mm 1 m/s 761 mmHg 46%
    05:00 -1°C° 0 mm 1 m/s 761 mmHg 46%
    06:00 -1°C° 0 mm 1 m/s 761 mmHg 45%
    07:00 -1°C° 0 mm 1 m/s 761 mmHg 44%
    08:00 0°C° 0 mm 1 m/s 761 mmHg 40%
    09:00 -1°C° 0 mm 2 m/s 761 mmHg 35%
    10:00 +1°C° 0 mm 2 m/s 761 mmHg 31%
    11:00 +2°C° 0 mm 2 m/s 761 mmHg 29%
    12:00 +4°C° 0 mm 2 m/s 760 mmHg 27%
    13:00 +4°C° 0 mm 3 m/s 760 mmHg 25%
    14:00 +4°C° 0 mm 2 m/s 760 mmHg 29%
    15:00 +4°C° 0 mm 2 m/s 760 mmHg 33%
    16:00 +4°C° 0 mm 2 m/s 760 mmHg 37%
    17:00 +3°C° 0 mm 2 m/s 760 mmHg 40%
    18:00 +1°C° 0 mm 2 m/s 760 mmHg 43%
    19:00 -1°C° 0 mm 2 m/s 760 mmHg 46%
    20:00 -1°C° 0 mm 2 m/s 760 mmHg 47%
    21:00 -1°C° 0 mm 3 m/s 760 mmHg 48%
    22:00 -1°C° 0 mm 3 m/s 760 mmHg 48%
    23:00 -1°C° 0 mm 3 m/s 760 mmHg 49%

    25 Februarie, Luni

    Timp Temperatura Precipitaţii Vânt Presiune Umiditate
    00:00 -1°C° 0 mm 3 m/s 760 mmHg 51%
    01:00 -1°C° 0 mm 3 m/s 760 mmHg 52%
    02:00 -1°C° 0 mm 3 m/s 760 mmHg 53%
    03:00 -2°C° 0 mm 4 m/s 759 mmHg 54%
    04:00 -2°C° 0 mm 4 m/s 759 mmHg 54%
    05:00 -2°C° 0 mm 4 m/s 759 mmHg 56%
    06:00 -2°C° 0 mm 4 m/s 759 mmHg 58%
    07:00 -2°C° 0 mm 4 m/s 759 mmHg 59%
    08:00 -1°C° 0 mm 4 m/s 759 mmHg 57%
    09:00 +1°C° 0 mm 4 m/s 759 mmHg 56%
    10:00 +2°C° 0 mm 5 m/s 759 mmHg 54%
    11:00 +3°C° 0 mm 5 m/s 759 mmHg 55%
    12:00 +5°C° 0 mm 5 m/s 759 mmHg 57%
    13:00 +6°C° 0 mm 5 m/s 758 mmHg 59%
    14:00 +6°C° 0 mm 4 m/s 758 mmHg 63%
    15:00 +6°C° 0 mm 4 m/s 758 mmHg 67%
    16:00 +5°C° 0 mm 3 m/s 758 mmHg 71%
    17:00 +4°C° 0 mm 3 m/s 758 mmHg 77%
    18:00 +4°C° 0 mm 2 m/s 758 mmHg 83%
    19:00 +3°C° 0 mm 2 m/s 758 mmHg 89%
    20:00 +2°C° 0 mm 2 m/s 758 mmHg 90%
    21:00 +2°C° 0 mm 2 m/s 758 mmHg 91%
    22:00 +2°C° 0 mm 2 m/s 758 mmHg 92%
    23:00 +1°C° 0 mm 2 m/s 758 mmHg 92%

    26 Februarie, Marţi

    Timp Temperatura Precipitaţii Vânt Presiune Umiditate
    00:00 0°C° 0 mm 3 m/s 757 mmHg 92%
    01:00 0°C° 0 mm 3 m/s 757 mmHg 92%
    02:00 0°C° 0 mm 3 m/s 756 mmHg 92%
    03:00 0°C° 0 mm 4 m/s 755 mmHg 91%
    04:00 0°C° 0 mm 4 m/s 755 mmHg 91%
    05:00 0°C° 0 mm 5 m/s 754 mmHg 89%
    06:00 0°C° 0 mm 5 m/s 754 mmHg 86%
    07:00 0°C° 0 mm 5 m/s 753 mmHg 84%
    08:00 +1°C° 0 mm 6 m/s 753 mmHg 79%
    09:00 +2°C° 0 mm 6 m/s 752 mmHg 74%
    10:00 +3°C° 0 mm 6 m/s 752 mmHg 70%
    11:00 +3°C° 0.1 mm 6 m/s 752 mmHg 71%
    12:00 +3°C° 0.1 mm 6 m/s 752 mmHg 72%
    13:00 +3°C° 0.1 mm 6 m/s 752 mmHg 73%
    14:00 +3°C° 0 mm 6 m/s 751 mmHg 72%
    15:00 +4°C° 0 mm 6 m/s 751 mmHg 72%
    16:00 +4°C° 0 mm 6 m/s 751 mmHg 71%
    17:00 +3°C° 0 mm 6 m/s 751 mmHg 75%
    18:00 +3°C° 0 mm 6 m/s 751 mmHg 79%
    19:00 +2°C° 0 mm 6 m/s 752 mmHg 83%
    20:00 +2°C° 0 mm 5 m/s 752 mmHg 80%
    21:00 +1°C° 0 mm 5 m/s 752 mmHg 78%
    22:00 +1°C° 0 mm 5 m/s 752 mmHg 75%
    23:00 0°C° 0 mm 4 m/s 752 mmHg 77%

    27 Februarie, Miercuri

    Timp Temperatura Precipitaţii Vânt Presiune Umiditate
    00:00 0°C° 0 mm 4 m/s 752 mmHg 78%
    01:00 -1°C° 0 mm 4 m/s 752 mmHg 80%
    02:00 -1°C° 0 mm 4 m/s 752 mmHg 83%
    03:00 -2°C° 0 mm 4 m/s 753 mmHg 85%
    04:00 -1°C° 0 mm 3 m/s 753 mmHg 88%
    05:00 -1°C° 0 mm 3 m/s 753 mmHg 89%
    06:00 -1°C° 0 mm 3 m/s 753 mmHg 90%
    07:00 -1°C° 0 mm 3 m/s 753 mmHg 91%
    08:00 0°C° 0 mm 3 m/s 753 mmHg 83%
    09:00 +2°C° 0 mm 3 m/s 753 mmHg 75%
    10:00 +3°C° 0 mm 3 m/s 753 mmHg 67%
    11:00 +4°C° 0 mm 3 m/s 753 mmHg 61%
    12:00 +5°C° 0 mm 3 m/s 753 mmHg 55%
    13:00 +8°C° 0 mm 3 m/s 752 mmHg 49%
    14:00 +8°C° 0 mm 3 m/s 752 mmHg 49%
    15:00 +8°C° 0 mm 3 m/s 751 mmHg 50%
    16:00 +7°C° 0 mm 4 m/s 751 mmHg 50%
    17:00 +5°C° 0 mm 3 m/s 751 mmHg 56%
    18:00 +4°C° 0 mm 3 m/s 750 mmHg 61%
    19:00 +3°C° 0 mm 3 m/s 750 mmHg 66%
    20:00 +3°C° 0 mm 4 m/s 750 mmHg 66%
    21:00 +1°C° 0 mm 4 m/s 749 mmHg 65%
    22:00 +1°C° 0 mm 4 m/s 748 mmHg 64%
    23:00 +1°C° 0 mm 4 m/s 748 mmHg 61%
    Arată mai mult